Weather History for KSNY - January, 2014

Change the Weather History Date:

Tuesday, January 28, 2014

  Actual Average Record
Temperature  
Mean Temperature 17 °F 30 °F  
Max Temperature 32 °F 42 °F 65 °F (2011)
Min Temperature 1 °F 17 °F -23 °F (1948)
Degree Days  
Heating Degree Days 48 36  
Month to date heating degree days 231 1008  
Since 1 July heating degree days 2865 3555  
Cooling Degree Days 0 0  
Month to date cooling degree days 0 0  
Year to date cooling degree days 0 0  
Moisture  
Dew Point -1 °F    
Average Humidity 53    
Maximum Humidity 86    
Minimum Humidity 19    
Precipitation  
Precipitation 0.00 in 0.01 in 0.24 in (1951)
Month to date precipitation 0.04 0.18  
Year to date precipitation 0.04 0.18  
Sea Level Pressure  
Sea Level Pressure 30.33 in    
Wind  
Wind Speed 13 mph (WNW)    
Max Wind Speed 29 mph    
Max Gust Speed 34 mph    
Visibility 10 miles    
Events      
T = Trace of Precipitation, MM = Missing Value Source: NWS Daily Summary

Daily Weather History Graph

Daily Weather History Graph

Search for Another Location

Airport or City:

Trip Planner

Search our weather history database for the weather conditions in past years. The results will help you decide how hot, cold, wet, or windy it might be!

Date:

Astronomy

Jan. 28, 2014 Rise Set
Actual Time 7:06 AM MST 5:03 PM MST
Civil Twilight 6:36 AM MST 5:33 PM MST
Nautical Twilight 6:03 AM MST 6:06 PM MST
Astronomical Twilight 5:31 AM MST 6:39 PM MST
Moon 4:50 AM MST (1/28) 2:56 PM MST (1/28)
Length of Visible Light 10h 56m
Length of Day
9h 57m
Waning Crescent, 7% of the Moon is Illuminated
Jan 28
Waning Crescent
Jan 30
New
Feb 6
First Quarter
Feb 14
Full
Feb 22
Last Quarter

Hourly Weather History & Observations

Time (MST) Temp. Windchill Dew Point Humidity Pressure Visibility Wind Dir Wind Speed Gust Speed Precip Events Conditions
12:53 AM 7.0 °F -6.6 °F 1.9 °F 80% 30.40 in 10.0 mi WNW 9.2 mph - N/A   Mostly Cloudy
1:53 AM 8.1 °F -6.2 °F 1.9 °F 76% 30.40 in 10.0 mi WNW 10.4 mph - N/A   Overcast
2:53 AM 6.1 °F -5.6 °F -0.0 °F 76% 30.41 in 10.0 mi NW 6.9 mph - N/A   Mostly Cloudy
3:53 AM 3.0 °F -10.5 °F -2.9 °F 76% 30.42 in 10.0 mi NW 8.1 mph - N/A   Clear
4:53 AM 3.0 °F -11.5 °F -4.0 °F 73% 30.43 in 10.0 mi WNW 9.2 mph - N/A   Clear
5:53 AM 3.0 °F -11.5 °F -4.0 °F 73% 30.45 in 10.0 mi West 9.2 mph - N/A   Mostly Cloudy
6:53 AM 1.9 °F -11.8 °F -5.1 °F 72% 30.48 in 10.0 mi WNW 8.1 mph - N/A   Clear
7:53 AM 3.9 °F -11.3 °F -2.9 °F 73% 30.47 in 10.0 mi WNW 10.4 mph - N/A   Clear
8:53 AM 10.9 °F -3.4 °F 3.0 °F 70% 30.45 in 10.0 mi WNW 11.5 mph - N/A   Clear
9:53 AM 18.0 °F 1.7 °F 3.0 °F 52% 30.42 in 10.0 mi NNW 19.6 mph - N/A   Clear
10:53 AM 21.9 °F 7.3 °F 1.9 °F 42% 30.40 in 10.0 mi NW 18.4 mph - N/A   Clear
11:53 AM 25.0 °F 12.2 °F -0.9 °F 33% 30.35 in 10.0 mi NW 16.1 mph 27.6 mph N/A   Clear
12:53 PM 28.0 °F 13.6 °F -4.0 °F 25% 30.29 in 10.0 mi NW 24.2 mph 32.2 mph N/A   Clear
1:53 PM 30.0 °F 16.0 °F -5.1 °F 22% 30.24 in 10.0 mi NW 25.3 mph 28.8 mph N/A   Clear
2:53 PM 30.9 °F 18.7 °F -6.0 °F 20% 30.22 in 10.0 mi NW 19.6 mph - N/A   Clear
3:53 PM 30.9 °F 19.4 °F -7.1 °F 19% 30.23 in 10.0 mi NNW 17.3 mph - N/A   Clear
4:53 PM 21.0 °F 9.9 °F 3.9 °F 48% 30.26 in 10.0 mi WSW 10.4 mph - N/A   Clear
5:53 PM 14.0 °F 1.2 °F 1.9 °F 59% 30.27 in 10.0 mi SW 10.4 mph - N/A   Clear
6:53 PM 10.0 °F -3.7 °F 1.0 °F 67% 30.29 in 10.0 mi WSW 10.4 mph - N/A   Clear
7:53 PM 9.0 °F -7.3 °F 1.0 °F 70% 30.27 in 10.0 mi WSW 13.8 mph - N/A   Clear
8:53 PM 7.0 °F -5.7 °F -0.0 °F 73% 30.25 in 10.0 mi West 8.1 mph - N/A   Clear
9:53 PM 14.0 °F -0.2 °F 3.9 °F 64% 30.20 in 10.0 mi West 12.7 mph - N/A   Clear
10:53 PM 8.1 °F -6.2 °F -0.9 °F 67% 30.19 in 10.0 mi West 10.4 mph - N/A   Clear
11:53 PM 10.0 °F -2.9 °F 1.0 °F 67% 30.15 in 10.0 mi WNW 9.2 mph - N/A   Clear